Torna al catalogo

FREGAT DEB

LostUNKNOWN
NORAD 45944·DEBRIS·🇷🇺 Russia

Lanciato Jul 18, 2011 da Baikonur Cosmodrome

Loading…

Prossimi Passaggi (prossime 24 ore)

TLE

ObsoletoSource: Space-Track

Epoca: Jul 22, 2026, 16:12 UTC

1 45944U 11037EZ  26203.67555070  .00013742  00000-0  50736-1 0  9995
2 45944  51.1500 327.6767 2256454 228.9208 109.3829  9.71739713209153

Traccia FREGAT DEB in tempo reale con AllMySat

Download on the App Store